Create Custom Reports and Graphics: Custom Report

AM-Scott Top 8120'

Current Conditions

1/23/22 3:30 AM (-08:00)
Updated Every 15 Minutes
Temp 24.4 °F   4.7
RH 86 %   1
Wet Bulb 23.1 °F   4.6
Dew Pt 20.8 °F   4.8
Wind Spd 12.2 mph   0.3
Wind Dir E | 98 °
Wind Gust 20.3 mph   4.5
Daily Min Temp 24.0 °F   4.3
Daily Max Temp 25.0 °F   4.1

Last 6 Hours

AM-Scott Top 8120'

15 Minute Data | America/Los_Angeles
as of 1/23/22 3:44 AM PST
Date & Time Temp (°F) RH (%) Dew Pt (°F) Wet Bulb (°F) Wind Dir (°) Wind Spd (mph) Wind Gust (mph) WindChill (°F) Daily Min Temp (°F) Daily Max Temp (°F)
1/23/22 - 0330 24.4 86 20.8 23.1 E | 98 12.2 20.3 10.6 24.0 25.0
1/23/22 - 0315 24.3 85 20.5 22.9 ESE | 102 13.5 19.6 14.7 24.0 25.0
1/23/22 - 0300 24.8 82 20.2 23.1 ESE | 102 12.1 20.0 13.6 24.0 25.0
1/23/22 - 0245 24.8 82 20.1 23.0 ESE | 110 13.0 21.5 14.3 24.0 25.0
1/23/22 - 0230 24.9 79 19.3 22.9 ESE | 116 13.3 20.1 17.8 24.0 25.0
1/23/22 - 0215 24.4 80 19.2 22.5 SE | 124 12.6 23.5 13.0 24.0 25.0
1/23/22 - 0200 24.4 76 18.1 22.2 ESE | 121 17.6 25.1 11.5 24.1 25.0
1/23/22 - 0145 24.5 78 18.5 22.4 ESE | 121 17.8 25.4 12.5 24.1 25.0
1/23/22 - 0130 24.3 78 18.5 22.2 SE | 130 10.0 20.4 11.7 24.1 25.0
1/23/22 - 0115 24.6 74 17.5 22.1 SE | 125 12.5 21.2 19.9 24.2 25.0
1/23/22 - 0100 24.2 82 19.4 22.5 SE | 132 9.5 19.7 12.8 24.2 25.0
1/23/22 - 0045 24.9 78 18.9 22.7 E | 98 11.3 18.8 14.7 24.4 25.0
1/23/22 - 0030 24.8 77 18.5 22.5 E | 85 9.0 15.1 16.0 24.4 25.0
1/23/22 - 0015 24.7 76 18.4 22.4 E | 97 12.4 21.9 13.0 24.4 25.0
1/23/22 - 0000 24.4 80 19.2 22.5 E | 86 11.7 19.9 15.5 18.4 31.4
1/22/22 - 2345 24.4 81 19.4 22.6 ESE | 109 13.0 22.1 12.3 18.4 31.4
1/22/22 - 2330 24.3 81 19.3 22.5 ESE | 108 14.9 27.4 11.8 18.4 31.4
1/22/22 - 2315 24.3 82 19.6 22.6 ESE | 109 12.9 23.0 15.9 18.4 31.4
1/22/22 - 2300 24.4 82 19.6 22.7 ESE | 121 13.0 23.6 12.0 18.4 31.4
1/22/22 - 2245 24.9 78 18.9 22.7 ESE | 105 14.1 29.0 12.9 18.4 31.4
1/22/22 - 2230 24.3 78 18.5 22.2 ESE | 112 15.0 26.5 16.6 18.4 31.4
1/22/22 - 2215 24.6 77 18.5 22.4 ESE | 114 16.2 24.5 9.7 18.4 31.4
1/22/22 - 2200 24.5 79 19.0 22.6 E | 91 13.4 23.5 12.7 18.4 31.4
1/22/22 - 2145 24.3 81 19.2 22.4 E | 86 9.4 18.1 16.0 18.4 31.4
Max 24.9 86 20.8 23.1 - 17.8 29.0 19.9 24.4 31.4
Avg 24.5 80 19.1 22.6 - 12.9 22.1 13.8 - -
Min 24.2 74 17.5 22.1 - 9.0 15.1 9.7 18.4 25.0

Last 30 Days

AM-Scott Top 8120'

Daily Data | America/Los_Angeles
as of 1/23/22 3:44 AM PST
Date Daily Max Temp (°F) Time of Max Temp Daily Min Temp (°F) Time of Min Temp Wind Spd (mph) Wind Gust (mph) Wind Gst Dir (°) Wind Gst Time Wet Bulb (°F) WetB Hrs <28F (hrs) Max RH (%) Min RH (%) Bat Volt Min Day (V)
1/22/22 31.4 1521 18.4 0500 11.9 33.1 ESE | 113 1008 21.5 24.0 91 58 11.3
1/21/22 35.0 0001 20.6 2355 11.6 34.3 E | 101 1907 22.3 24.0 88 34 11.3
1/20/22 48.4 1356 29.9 0013 5.7 18.7 ESE | 123 0518 31.8 6.5 77 35 11.3
1/19/22 40.9 1232 27.6 0755 5.5 23.0 SE | 126 2202 27.7 16.8 82 42 11.3
1/18/22 45.3 1402 30.8 2358 3.6 11.5 NE | 35 2151 29.4 10.5 70 38 11.3
1/17/22 40.1 1250 32.0 1946 4.1 16.9 NW | 308 1312 29.2 8.8 81 31 11.3
1/16/22 44.7 1206 34.9 2357 6.1 24.6 WSW | 243 1419 29.2 6.9 52 8 11.4
1/15/22 50.2 1132 31.4 0215 2.2 16.2 SE | 126 0001 28.0 15.7 52 7 11.3
1/14/22 39.5 0003 25.8 0727 7.5 26.2 E | 98 0722 26.9 18.0 96 18 11.3
1/13/22 43.0 0036 34.7 2243 19.6 56.4 WSW | 239 0933 28.0 14.3 44 18 11.3
1/12/22 58.2 1224 38.5 2349 6.8 28.5 SW | 217 1959 34.7 0.0 37 15 11.4
1/11/22 51.7 1116 33.7 0104 3.5 18.5 ESE | 119 2104 31.9 0.1 58 27 11.3
1/10/22 44.5 1349 28.5 0423 5.4 25.6 WSW | 238 0313 27.0 15.3 63 25 11.3
1/9/22 43.2 1322 22.6 0123 4.4 17.3 WSW | 240 2354 24.8 19.3 82 20 11.3
1/8/22 34.8 1309 19.9 0124 4.7 21.6 E | 99 1942 22.5 24.0 97 39 11.3
1/7/22 33.0 0001 22.2 2354 19.5 61.2 WSW | 255 0222 27.0 13.8 98 82 11.3
1/6/22 39.8 1410 32.6 2347 16.0 42.7 SW | 230 2226 35.1 0.0 97 70 11.4
1/5/22 40.8 2031 28.0 0220 3.1 17.5 NNE | 30 1356 33.4 0.0 100 61 11.3
1/4/22 29.8 2105 27.2 0004 16.0 52.8 SW | 214 0048 28.4 4.0 99 98 11.3
1/3/22 27.4 2249 20.7 0223 35.3 72.9 WSW | 240 1835 20.5 24.0 98 36 11.3
1/2/22 28.4 1426 21.6 2348 24.8 53.3 WSW | 246 2341 20.4 9.6 71 42 11.3
1/1/22 28.1 1401 7.3 0116 2.1 14.3 WSW | 245 2337 19.1 24.0 97 88 11.3
12/31/21 21.5 1120 8.7 2359 3.2 12.5 SW | 222 0030 16.6 24.0 97 93 11.3
12/30/21 23.9 1217 18.6 0509 6.3 16.6 SW | 231 1419 21.0 24.0 98 96 11.3
12/29/21 21.6 1121 18.7 0403 7.0 21.2 SSW | 210 0920 19.7 24.0 97 96 11.3
12/28/21 19.5 1307 12.6 0741 9.2 30.2 SSW | 211 0238 15.7 24.0 96 94 11.3
12/27/21 17.6 0514 11.8 1931 9.6 56.6 SSW | 202 1316 15.0 24.0 96 94 11.3
12/26/21 15.3 2356 9.3 0740 10.2 61.9 S | 189 0108 12.4 24.0 95 93 11.3
12/25/21 21.3 1503 14.2 2345 23.0 53.8 SW | 225 2206 18.7 12.9 97 95 11.3
12/24/21 26.1 1105 18.1 1536 20.0 49.7 S | 182 1111 20.1 13.0 99 96 11.3
Max 58.2 - 38.5 - 35.3 72.9 - - 35.1 24.0 100 98 11.4
Avg - - - - 10.3 33.0 - - 24.6 - - - -
Min 15.3 - 7.3 - 2.1 11.5 - - 12.4 0.0 37 7 11.3
Calm: 0.0%
Calm: 0.0%